| time (UTC) | temp C | wind direction | speed KPH | gust KPH | rain 1hr cm | rain 24hr cm | rain mn cm | humidity % | barometer mb |
| 20260503230038 | 17 | 298 | 0.0 | 4.8 | 0.00 | 0.00 | 0.00 | 44 | 1015.1 |
| 20260503224536 | 18 | 221 | 0.0 | 0.0 | 0.00 | 0.00 | 0.00 | 46 | 1015.2 |
| 20260503223036 | 18 | 193 | 0.0 | 6.4 | 0.00 | 0.00 | 0.00 | 44 | 1015.2 |
| 20260503221535 | 18 | 27 | 0.0 | 1.6 | 0.00 | 0.00 | 0.00 | 44 | 1015.3 |
| 20260503220034 | 18 | 302 | 0.0 | 8.0 | 0.00 | 0.00 | 0.00 | 45 | 1015.2 |
| 20260503214533 | 18 | 196 | 0.0 | 6.4 | 0.00 | 0.00 | 0.00 | 43 | 1015.4 |
| 20260503213032 | 18 | 143 | 0.0 | 8.0 | 0.00 | 0.00 | 0.00 | 44 | 1015.5 |
| 20260503211529 | 18 | 295 | 0.0 | 4.8 | 0.00 | 0.00 | 0.00 | 44 | 1015.6 |
| 20260503210029 | 18 | 215 | 0.0 | 4.8 | 0.00 | 0.00 | 0.00 | 43 | 1015.6 |
| 20260503204530 | 17 | 231 | 0.0 | 11.3 | 0.00 | 0.00 | 0.00 | 44 | 1015.7 |
| 20260503203027 | 17 | 252 | 0.0 | 8.0 | 0.00 | 0.00 | 0.00 | 44 | 1016.1 |
| 20260503201527 | 17 | 236 | 1.6 | 9.7 | 0.00 | 0.00 | 0.00 | 42 | 1016.3 |
| 20260503200024 | 17 | 234 | 0.0 | 1.6 | 0.00 | 0.00 | 0.00 | 45 | 1016.5 |
| 20260503194523 | 17 | 226 | 0.0 | 12.9 | 0.00 | 0.00 | 0.00 | 46 | 1016.8 |
| 20260503193036 | 16 | 267 | 1.6 | 8.0 | 0.00 | 0.00 | 0.00 | 47 | 1017.1 |
| 20260503191519 | 17 | 46 | 0.0 | 4.8 | 0.00 | 0.00 | 0.00 | 44 | 1017.2 |
| 20260503190016 | 16 | 290 | 0.0 | 6.4 | 0.00 | 0.00 | 0.00 | 48 | 1017.4 |
| 20260503184522 | 16 | 276 | 0.0 | 8.0 | 0.00 | 0.00 | 0.00 | 48 | 1017.6 |
| 20260503183014 | 15 | 31 | 1.6 | 11.3 | 0.00 | 0.00 | 0.00 | 46 | 1017.7 |
| 20260503181514 | 16 | 333 | 0.0 | 4.8 | 0.00 | 0.00 | 0.00 | 45 | 1017.9 |
| 20260503180017 | 16 | 252 | 0.0 | 9.7 | 0.00 | 0.00 | 0.00 | 48 | 1017.9 |
| 20260503174511 | 15 | 295 | 3.2 | 9.7 | 0.00 | 0.00 | 0.00 | 47 | 1017.9 |
| 20260503173021 | 15 | 68 | 0.0 | 3.2 | 0.00 | 0.00 | 0.00 | 45 | 1018.2 |
| 20260503171517 | 15 | 338 | 3.2 | 8.0 | 0.00 | 0.00 | 0.00 | 50 | 1018.5 |
| 20260503100110 | 3 | 141 | 0.0 | 0.0 | 0.00 | 0.00 | 0.00 | 86 | 1017.3 |
| 20260503081545 | 4 | 113 | 0.0 | 0.0 | 0.00 | 0.00 | 0.00 | 80 | 1016.3 |
| 20260503071539 | 5 | 128 | 0.0 | 1.6 | 0.00 | 0.00 | 0.00 | 78 | 1015.6 |
| 20260503054536 | 5 | 131 | 0.0 | 0.0 | 0.00 | 0.00 | 0.00 | 77 | 1015.5 |
| 20260503053024 | 6 | 230 | 0.0 | 0.0 | 0.00 | 0.00 | 0.00 | 73 | 1015.5 |
| 20260503051527 | 6 | 295 | 0.0 | 1.6 | 0.00 | 0.00 | 0.00 | 72 | 1015.4 |
| 20260503050023 | 6 | 72 | 0.0 | 6.4 | 0.00 | 0.00 | 0.00 | 73 | 1015.5 |
| 20260503044530 | 6 | 238 | 0.0 | 0.0 | 0.00 | 0.00 | 0.00 | 71 | 1015.4 |
| 20260503043017 | 6 | 100 | 0.0 | 0.0 | 0.00 | 0.00 | 0.00 | 70 | 1015.3 |
| 20260503041516 | 6 | 100 | 0.0 | 0.0 | 0.00 | 0.00 | 0.00 | 71 | 1015.2 |
| 20260503040022 | 6 | 100 | 0.0 | 0.0 | 0.00 | 0.00 | 0.00 | 69 | 1015.1 |
| 20260503034509 | 7 | 264 | 0.0 | 0.0 | 0.00 | 0.00 | 0.00 | 64 | 1014.9 |
| 20260503033005 | 7 | 250 | 0.0 | 1.6 | 0.00 | 0.00 | 0.00 | 64 | 1014.7 |
| 20260503031503 | 8 | 86 | 0.0 | 0.0 | 0.00 | 0.00 | 0.00 | 60 | 1014.7 |
| 20260503030100 | 8 | 56 | 0.0 | 0.0 | 0.00 | 0.00 | 0.00 | 57 | 1014.5 |
| 20260503024557 | 9 | 74 | 0.0 | 4.8 | 0.00 | 0.00 | 0.00 | 55 | 1014.3 |
| 20260503023100 | 9 | 93 | 0.0 | 12.9 | 0.00 | 0.00 | 0.00 | 54 | 1014.3 |
| 20260503021554 | 10 | 219 | 0.0 | 12.9 | 0.00 | 0.00 | 0.00 | 54 | 1014.0 |
| 20260503020051 | 10 | 58 | 1.6 | 12.9 | 0.00 | 0.00 | 0.00 | 53 | 1013.9 |
| 20260503014549 | 10 | 32 | 1.6 | 16.1 | 0.00 | 0.00 | 0.00 | 53 | 1013.5 |
| 20260503013054 | 10 | 20 | 1.6 | 11.3 | 0.00 | 0.00 | 0.00 | 51 | 1013.2 |
| 20260503011556 | 10 | 16 | 0.0 | 8.0 | 0.00 | 0.00 | 0.00 | 50 | 1013.1 |
| 20260503010112 | 11 | 250 | 1.6 | 11.3 | 0.00 | 0.00 | 0.00 | 49 | 1012.8 |
| 20260503004543 | 11 | 271 | 3.2 | 9.7 | 0.00 | 0.00 | 0.00 | 47 | 1012.5 |
| 20260503003042 | 11 | 41 | 1.6 | 11.3 | 0.00 | 0.00 | 0.00 | 46 | 1012.3 |
| 20260503001541 | 11 | 293 | 1.6 | 11.3 | 0.00 | 0.00 | 0.00 | 45 | 1012.1 |
| 20260503000040 | 12 | 309 | 1.6 | 12.9 | 0.00 | 0.00 | 0.00 | 45 | 1011.8 |
| 20260502234541 | 12 | 283 | 1.6 | 9.7 | 0.00 | 0.00 | 0.00 | 44 | 1011.7 |
| 20260502233039 | 12 | 319 | 0.0 | 12.9 | 0.00 | 0.00 | 0.00 | 43 | 1011.4 |
| 20260502231538 | 12 | 59 | 0.0 | 16.1 | 0.00 | 0.00 | 0.00 | 42 | 1011.3 |